| time (UTC) | temp F | wind direction | speed MPH | gust MPH | rain 1hr in | rain 24hr in | rain mn in | humidity % | barometer mb |
| 20260505052354 | 59 | 103 | 0.0 | 0.0 | 0.00 | 0.00 | 0.00 | 70 | 1013.3 |
| 20260505051852 | 59 | 116 | 0.0 | 1.0 | 0.00 | 0.00 | 0.00 | 70 | 1013.3 |
| 20260505051349 | 59 | 121 | 0.0 | 2.0 | 0.00 | 0.00 | 0.00 | 70 | 1013.3 |
| 20260505050847 | 59 | 131 | 1.0 | 1.0 | 0.00 | 0.00 | 0.00 | 70 | 1013.2 |
| 20260505050345 | 59 | 119 | 0.0 | 1.0 | 0.00 | 0.00 | 0.00 | 69 | 1013.1 |
| 20260505041312 | 59 | 102 | 1.0 | 2.0 | 0.00 | 0.00 | 0.00 | 67 | 1013.4 |
| 20260505040809 | 59 | 95 | 0.0 | 2.0 | 0.00 | 0.00 | 0.00 | 67 | 1013.2 |
| 20260505040307 | 59 | 127 | 1.0 | 2.0 | 0.00 | 0.00 | 0.00 | 67 | 1013.4 |
| 20260505035803 | 59 | 123 | 2.0 | 2.0 | 0.00 | 0.00 | 0.00 | 67 | 1013.4 |
| 20260505035259 | 59 | 187 | 2.0 | 3.0 | 0.00 | 0.00 | 0.00 | 67 | 1013.3 |
| 20260505034757 | 59 | 98 | 1.0 | 2.0 | 0.00 | 0.00 | 0.00 | 67 | 1013.3 |
| 20260505034253 | 59 | 185 | 2.0 | 3.0 | 0.00 | 0.00 | 0.00 | 67 | 1013.2 |
| 20260505033750 | 59 | 105 | 0.0 | 3.0 | 0.00 | 0.00 | 0.00 | 67 | 1013.4 |
| 20260505033248 | 59 | 110 | 0.0 | 1.0 | 0.00 | 0.00 | 0.00 | 66 | 1013.1 |
| 20260505032745 | 59 | 100 | 0.0 | 1.0 | 0.00 | 0.00 | 0.00 | 65 | 1013.3 |
| 20260505032241 | 59 | 90 | 0.0 | 1.0 | 0.00 | 0.00 | 0.00 | 65 | 1013.5 |
| 20260505031739 | 59 | 98 | 1.0 | 2.0 | 0.00 | 0.00 | 0.00 | 64 | 1013.6 |
| 20260505031235 | 60 | 85 | 0.0 | 1.0 | 0.00 | 0.00 | 0.00 | 63 | 1013.6 |
| 20260505030732 | 60 | 131 | 0.0 | 2.0 | 0.00 | 0.00 | 0.00 | 63 | 1013.6 |
| 20260505030228 | 60 | 107 | 0.0 | 2.0 | 0.00 | 0.00 | 0.00 | 62 | 1013.6 |
| 20260505025724 | 60 | 88 | 1.0 | 3.0 | 0.00 | 0.00 | 0.00 | 61 | 1013.3 |
| 20260505025222 | 61 | 96 | 0.0 | 2.0 | 0.00 | 0.00 | 0.00 | 60 | 1013.4 |
| 20260505024720 | 61 | 162 | 2.0 | 3.0 | 0.00 | 0.00 | 0.00 | 60 | 1013.6 |
| 20260505024217 | 61 | 94 | 1.0 | 4.0 | 0.00 | 0.00 | 0.00 | 59 | 1013.7 |
| 20260505023714 | 61 | 125 | 1.0 | 4.0 | 0.00 | 0.00 | 0.00 | 59 | 1013.5 |
| 20260505023212 | 61 | 168 | 2.0 | 4.0 | 0.00 | 0.00 | 0.00 | 58 | 1013.5 |
| 20260505022709 | 61 | 167 | 2.0 | 2.0 | 0.00 | 0.00 | 0.00 | 58 | 1013.7 |
| 20260505022206 | 61 | 105 | 0.0 | 3.0 | 0.00 | 0.00 | 0.00 | 57 | 1013.7 |
| 20260505021702 | 61 | 107 | 2.0 | 3.0 | 0.00 | 0.00 | 0.00 | 56 | 1013.7 |
| 20260505021159 | 62 | 100 | 0.0 | 4.0 | 0.00 | 0.00 | 0.00 | 56 | 1013.6 |
| 20260505020655 | 62 | 103 | 0.0 | 1.0 | 0.00 | 0.00 | 0.00 | 55 | 1013.7 |
| 20260505020151 | 62 | 127 | 3.0 | 3.0 | 0.00 | 0.00 | 0.00 | 54 | 1013.8 |
| 20260505015648 | 63 | 149 | 1.0 | 2.0 | 0.00 | 0.00 | 0.00 | 53 | 1013.6 |
| 20260505015145 | 63 | 117 | 1.0 | 6.0 | 0.00 | 0.00 | 0.00 | 52 | 1013.5 |
| 20260505014642 | 63 | 113 | 0.0 | 3.0 | 0.00 | 0.00 | 0.00 | 50 | 1013.7 |
| 20260505014139 | 63 | 134 | 3.0 | 4.0 | 0.00 | 0.00 | 0.00 | 49 | 1013.7 |
| 20260505013636 | 64 | 114 | 3.0 | 7.0 | 0.00 | 0.00 | 0.00 | 47 | 1013.7 |
| 20260505013133 | 64 | 93 | 1.0 | 4.0 | 0.00 | 0.00 | 0.00 | 46 | 1013.6 |
| 20260505012632 | 64 | 97 | 1.0 | 3.0 | 0.00 | 0.00 | 0.00 | 45 | 1013.5 |
| 20260505012128 | 64 | 140 | 4.0 | 4.0 | 0.00 | 0.00 | 0.00 | 44 | 1013.5 |
| 20260505011624 | 65 | 118 | 1.0 | 2.0 | 0.00 | 0.00 | 0.00 | 43 | 1013.5 |
| 20260505011121 | 65 | 95 | 1.0 | 3.0 | 0.00 | 0.00 | 0.00 | 42 | 1013.4 |
| 20260505010616 | 64 | 183 | 4.0 | 6.0 | 0.00 | 0.00 | 0.00 | 43 | 1013.3 |
| 20260505010113 | 65 | 151 | 1.0 | 2.0 | 0.00 | 0.00 | 0.00 | 42 | 1013.2 |
| 20260505005609 | 65 | 192 | 2.0 | 3.0 | 0.00 | 0.00 | 0.00 | 42 | 1013.2 |
| 20260505005107 | 65 | 85 | 0.0 | 1.0 | 0.00 | 0.00 | 0.00 | 42 | 1013.0 |
| 20260505004604 | 65 | 169 | 2.0 | 3.0 | 0.00 | 0.00 | 0.00 | 41 | 1013.1 |
| 20260505004101 | 66 | 114 | 1.0 | 1.0 | 0.00 | 0.00 | 0.00 | 41 | 1013.0 |
| 20260505003558 | 66 | 118 | 0.0 | 1.0 | 0.00 | 0.00 | 0.00 | 41 | 1012.7 |
| 20260505003055 | 66 | 141 | 1.0 | 3.0 | 0.00 | 0.00 | 0.00 | 40 | 1012.8 |
| 20260505002555 | 66 | 103 | 0.0 | 1.0 | 0.00 | 0.00 | 0.00 | 40 | 1012.9 |
| 20260505002055 | 67 | 110 | 0.0 | 1.0 | 0.00 | 0.00 | 0.00 | 39 | 1012.8 |
| 20260505001551 | 68 | 108 | 0.0 | 1.0 | 0.00 | 0.00 | 0.00 | 38 | 1012.4 |
| 20260505001048 | 68 | 135 | 1.0 | 2.0 | 0.00 | 0.00 | 0.00 | 38 | 1012.7 |
| 20260505000546 | 68 | 182 | 2.0 | 4.0 | 0.00 | 0.00 | 0.00 | 37 | 1012.6 |
| 20260505000044 | 69 | 115 | 0.0 | 2.0 | 0.00 | 0.00 | 0.00 | 37 | 1012.6 |
| 20260504235540 | 69 | 107 | 1.0 | 4.0 | 0.00 | 0.00 | 0.00 | 35 | 1012.4 |
| 20260504235037 | 69 | 199 | 2.0 | 6.0 | 0.00 | 0.00 | 0.00 | 35 | 1012.6 |
| 20260504234534 | 70 | 147 | 1.0 | 3.0 | 0.00 | 0.00 | 0.00 | 35 | 1012.4 |
| 20260504234031 | 70 | 128 | 2.0 | 2.0 | 0.00 | 0.00 | 0.00 | 34 | 1012.4 |
| 20260504233526 | 70 | 158 | 3.0 | 8.0 | 0.00 | 0.00 | 0.00 | 34 | 1012.4 |
| 20260504233023 | 71 | 104 | 0.0 | 2.0 | 0.00 | 0.00 | 0.00 | 34 | 1012.4 |
| 20260504232520 | 71 | 130 | 2.0 | 7.0 | 0.00 | 0.00 | 0.00 | 32 | 1012.4 |
| 20260504232018 | 71 | 145 | 1.0 | 4.0 | 0.00 | 0.00 | 0.00 | 32 | 1012.4 |
| 20260504231514 | 71 | 133 | 2.0 | 6.0 | 0.00 | 0.00 | 0.00 | 32 | 1012.3 |
| 20260504231010 | 71 | 86 | 1.0 | 4.0 | 0.00 | 0.00 | 0.00 | 32 | 1012.1 |
| 20260504230507 | 71 | 259 | 2.0 | 3.0 | 0.00 | 0.00 | 0.00 | 32 | 1012.3 |
| 20260504230006 | 71 | 281 | 5.0 | 8.0 | 0.00 | 0.00 | 0.00 | 31 | 1012.2 |
| 20260504225502 | 72 | 282 | 5.0 | 6.0 | 0.00 | 0.00 | 0.00 | 31 | 1012.4 |
| 20260504225000 | 72 | 282 | 2.0 | 6.0 | 0.00 | 0.00 | 0.00 | 31 | 1012.4 |
| 20260504224456 | 72 | 280 | 3.0 | 7.0 | 0.00 | 0.00 | 0.00 | 32 | 1012.4 |
| 20260504223953 | 72 | 109 | 0.0 | 2.0 | 0.00 | 0.00 | 0.00 | 31 | 1012.3 |
| 20260504223449 | 72 | 117 | 2.0 | 3.0 | 0.00 | 0.00 | 0.00 | 32 | 1012.4 |
| 20260504222945 | 72 | 128 | 3.0 | 9.0 | 0.00 | 0.00 | 0.00 | 31 | 1012.4 |
| 20260504222443 | 72 | 173 | 1.0 | 8.0 | 0.00 | 0.00 | 0.00 | 31 | 1012.3 |
| 20260504221940 | 72 | 123 | 2.0 | 6.0 | 0.00 | 0.00 | 0.00 | 31 | 1012.3 |
| 20260504221437 | 73 | 127 | 1.0 | 13.0 | 0.00 | 0.00 | 0.00 | 30 | 1012.3 |
| 20260504220934 | 73 | 168 | 3.0 | 8.0 | 0.00 | 0.00 | 0.00 | 30 | 1012.5 |
| 20260504220430 | 73 | 102 | 4.0 | 9.0 | 0.00 | 0.00 | 0.00 | 29 | 1012.3 |
| 20260504215928 | 73 | 244 | 2.0 | 7.0 | 0.00 | 0.00 | 0.00 | 29 | 1012.6 |
| 20260504215424 | 73 | 253 | 8.0 | 9.0 | 0.00 | 0.00 | 0.00 | 28 | 1012.5 |
| 20260504214921 | 73 | 146 | 1.0 | 9.0 | 0.00 | 0.00 | 0.00 | 29 | 1012.5 |
| 20260504214417 | 74 | 255 | 3.0 | 9.0 | 0.00 | 0.00 | 0.00 | 29 | 1012.6 |
| 20260504213914 | 74 | 268 | 3.0 | 11.0 | 0.00 | 0.00 | 0.00 | 28 | 1012.5 |
| 20260504213410 | 74 | 322 | 6.0 | 10.0 | 0.00 | 0.00 | 0.00 | 28 | 1012.5 |
| 20260504212908 | 74 | 228 | 1.0 | 6.0 | 0.00 | 0.00 | 0.00 | 29 | 1012.6 |
| 20260504212403 | 74 | 136 | 2.0 | 4.0 | 0.00 | 0.00 | 0.00 | 29 | 1012.5 |
| 20260504211901 | 75 | 342 | 4.0 | 10.0 | 0.00 | 0.00 | 0.00 | 28 | 1012.4 |
| 20260504211357 | 74 | 206 | 4.0 | 10.0 | 0.00 | 0.00 | 0.00 | 28 | 1012.5 |
| 20260504210855 | 75 | 265 | 2.0 | 4.0 | 0.00 | 0.00 | 0.00 | 29 | 1012.4 |
| 20260504210351 | 75 | 131 | 3.0 | 8.0 | 0.00 | 0.00 | 0.00 | 28 | 1012.4 |
| 20260504205849 | 74 | 118 | 2.0 | 14.0 | 0.00 | 0.00 | 0.00 | 29 | 1012.5 |
| 20260504205346 | 74 | 214 | 5.0 | 9.0 | 0.00 | 0.00 | 0.00 | 28 | 1012.5 |
| 20260504204844 | 74 | 288 | 4.0 | 10.0 | 0.00 | 0.00 | 0.00 | 28 | 1012.5 |
| 20260504204343 | 74 | 122 | 1.0 | 9.0 | 0.00 | 0.00 | 0.00 | 28 | 1012.5 |
| 20260504203842 | 74 | 281 | 5.0 | 10.0 | 0.00 | 0.00 | 0.00 | 28 | 1012.7 |
| 20260504203338 | 74 | 264 | 4.0 | 13.0 | 0.00 | 0.00 | 0.00 | 29 | 1012.5 |
| 20260504202834 | 75 | 270 | 3.0 | 10.0 | 0.00 | 0.00 | 0.00 | 28 | 1012.5 |
| 20260504202331 | 75 | 220 | 3.0 | 8.0 | 0.00 | 0.00 | 0.00 | 27 | 1012.7 |
| 20260504201828 | 74 | 235 | 2.0 | 10.0 | 0.00 | 0.00 | 0.00 | 29 | 1012.5 |
| 20260504201325 | 74 | 343 | 7.0 | 15.0 | 0.00 | 0.00 | 0.00 | 28 | 1012.5 |
| 20260504200822 | 74 | 301 | 7.0 | 9.0 | 0.00 | 0.00 | 0.00 | 28 | 1012.4 |
| 20260504200319 | 74 | 172 | 3.0 | 13.0 | 0.00 | 0.00 | 0.00 | 28 | 1012.7 |
| 20260504195815 | 74 | 150 | 8.0 | 10.0 | 0.00 | 0.00 | 0.00 | 29 | 1012.6 |
| 20260504195311 | 73 | 95 | 3.0 | 10.0 | 0.00 | 0.00 | 0.00 | 29 | 1012.7 |
| 20260504194808 | 74 | 282 | 6.0 | 13.0 | 0.00 | 0.00 | 0.00 | 28 | 1012.7 |
| 20260504194304 | 73 | 232 | 4.0 | 13.0 | 0.00 | 0.00 | 0.00 | 30 | 1012.9 |
| 20260504193800 | 74 | 288 | 3.0 | 10.0 | 0.00 | 0.00 | 0.00 | 28 | 1013.1 |
| 20260504193258 | 74 | 188 | 4.0 | 7.0 | 0.00 | 0.00 | 0.00 | 29 | 1012.9 |
| 20260504192756 | 73 | 257 | 2.0 | 7.0 | 0.00 | 0.00 | 0.00 | 31 | 1013.1 |
| 20260504192254 | 74 | 131 | 4.0 | 6.0 | 0.00 | 0.00 | 0.00 | 27 | 1013.2 |
| 20260504191753 | 74 | 177 | 4.0 | 7.0 | 0.00 | 0.00 | 0.00 | 28 | 1013.3 |
| 20260504191249 | 73 | 284 | 3.0 | 7.0 | 0.00 | 0.00 | 0.00 | 28 | 1013.2 |
| 20260504190745 | 73 | 55 | 6.0 | 14.0 | 0.00 | 0.00 | 0.00 | 28 | 1013.4 |
| 20260504190241 | 73 | 145 | 5.0 | 9.0 | 0.00 | 0.00 | 0.00 | 29 | 1013.6 |
| 20260504185737 | 73 | 252 | 10.0 | 13.0 | 0.00 | 0.00 | 0.00 | 27 | 1013.8 |
| 20260504185235 | 72 | 280 | 3.0 | 11.0 | 0.00 | 0.00 | 0.00 | 29 | 1013.6 |
| 20260504184731 | 73 | 256 | 7.0 | 14.0 | 0.00 | 0.00 | 0.00 | 28 | 1013.5 |
| 20260504184227 | 73 | 136 | 2.0 | 9.0 | 0.00 | 0.00 | 0.00 | 29 | 1013.8 |
| 20260504183723 | 72 | 192 | 1.0 | 9.0 | 0.00 | 0.00 | 0.00 | 30 | 1013.8 |
| 20260504183220 | 72 | 303 | 4.0 | 10.0 | 0.00 | 0.00 | 0.00 | 31 | 1013.9 |
| 20260504182718 | 72 | 248 | 5.0 | 7.0 | 0.00 | 0.00 | 0.00 | 29 | 1013.8 |
| 20260504182215 | 72 | 88 | 10.0 | 14.0 | 0.00 | 0.00 | 0.00 | 27 | 1014.0 |
| 20260504181712 | 71 | 168 | 3.0 | 11.0 | 0.00 | 0.00 | 0.00 | 31 | 1014.2 |
| 20260504181210 | 71 | 247 | 2.0 | 11.0 | 0.00 | 0.00 | 0.00 | 33 | 1014.2 |
| 20260504180709 | 71 | 260 | 3.0 | 9.0 | 0.00 | 0.00 | 0.00 | 32 | 1014.3 |
| 20260504180207 | 71 | 251 | 5.0 | 10.0 | 0.00 | 0.00 | 0.00 | 28 | 1014.3 |
| 20260504175704 | 71 | 146 | 6.0 | 8.0 | 0.00 | 0.00 | 0.00 | 30 | 1014.2 |
| 20260504175201 | 71 | 230 | 4.0 | 8.0 | 0.00 | 0.00 | 0.00 | 29 | 1014.4 |
| 20260504174659 | 71 | 244 | 6.0 | 13.0 | 0.00 | 0.00 | 0.00 | 29 | 1014.7 |
| 20260504174155 | 71 | 164 | 7.0 | 9.0 | 0.00 | 0.00 | 0.00 | 30 | 1014.5 |
| 20260504173652 | 70 | 104 | 3.0 | 9.0 | 0.00 | 0.00 | 0.00 | 30 | 1014.6 |
| 20260504173150 | 70 | 172 | 5.0 | 10.0 | 0.00 | 0.00 | 0.00 | 30 | 1014.6 |
| 20260504172646 | 70 | 201 | 3.0 | 8.0 | 0.00 | 0.00 | 0.00 | 34 | 1014.7 |
| 20260504172143 | 70 | 177 | 4.0 | 8.0 | 0.00 | 0.00 | 0.00 | 31 | 1014.9 |
| 20260504171639 | 70 | 196 | 2.0 | 7.0 | 0.00 | 0.00 | 0.00 | 33 | 1014.9 |
| 20260504171137 | 71 | 153 | 5.0 | 7.0 | 0.00 | 0.00 | 0.00 | 31 | 1015.0 |
| 20260504170633 | 69 | 229 | 1.0 | 3.0 | 0.00 | 0.00 | 0.00 | 35 | 1015.0 |
| 20260504170130 | 70 | 250 | 5.0 | 11.0 | 0.00 | 0.00 | 0.00 | 31 | 1015.1 |
| 20260504151016 | 66 | 86 | 4.0 | 11.0 | 0.00 | 0.00 | 0.00 | 38 | 1016.4 |
| 20260504150513 | 67 | 252 | 4.0 | 8.0 | 0.00 | 0.00 | 0.00 | 38 | 1016.2 |
| 20260504140939 | 63 | 191 | 2.0 | 6.0 | 0.00 | 0.00 | 0.00 | 49 | 1016.8 |
| 20260504140436 | 62 | 142 | 2.0 | 6.0 | 0.00 | 0.00 | 0.00 | 49 | 1016.7 |
| 20260504130400 | 60 | 315 | 3.0 | 6.0 | 0.00 | 0.00 | 0.00 | 51 | 1017.2 |
| 20260504110248 | 51 | 142 | 2.0 | 4.0 | 0.00 | 0.00 | 0.00 | 70 | 1017.9 |
| 20260504100211 | 48 | 239 | 1.0 | 3.0 | 0.00 | 0.00 | 0.00 | 69 | 1017.8 |
| 20260504090133 | 46 | 128 | 0.0 | 1.0 | 0.00 | 0.00 | 0.00 | 69 | 1017.8 |
| 20260504081604 | 44 | 111 | 0.0 | 0.0 | 0.00 | 0.00 | 0.00 | 72 | 1017.6 |
| 20260504081059 | 43 | 117 | 0.0 | 1.0 | 0.00 | 0.00 | 0.00 | 73 | 1017.7 |
| 20260504080556 | 43 | 104 | 0.0 | 0.0 | 0.00 | 0.00 | 0.00 | 73 | 1017.6 |